{"data":{"norad_id":69765,"intl_designator":"2026-151C","name":"KUIPER-00558","alt_names":[],"object_type":"PAYLOAD","status":"ACTIVE","operator":null,"country":"US","launch_date":"2026-07-02","launch_site_code":"AFETR","launch_vehicle":null,"mission":null,"orbit_class":"UNKNOWN","rcs_meters":null,"size_class":null,"mass_kg":null,"dimensions":null,"purposes":[],"wikipedia_slug":null,"has_3d_model":false,"image_url":null,"decayed_at":null,"tle_current":{"epoch":"2026-09-19T23:06:00.980640Z","epoch_age_seconds":73168,"freshness":"FRESH","line1":"1 69765U 26151C   26262.96251135  .00005692  00000+0  77471-3 0  9998","line2":"2 69765  51.8948 236.5632 0000530  38.5613 321.5387 14.79949209 12029","mean_motion":14.79949209,"eccentricity":5.3e-5,"inclination_deg":51.8948,"raan_deg":236.5632,"arg_perigee_deg":38.5613,"mean_anomaly_deg":321.5387,"bstar":0.00077471,"rev_number":1202,"period_min":97.300636484208,"perigee_km":629.11305790812,"apogee_km":629.85586578308,"semimajor_km":7007.6214618456,"source":"CELESTRAK","updated_at":"2026-09-20T09:00:25.087951Z"}}}